Sidney, NE

12:10 PM MDT on October 20, 2017 (GMT -0600)
Sidney Municipal

Weather History for KSNY - May, 2012

Change the Weather History Date:

Wednesday, May 23, 2012

  Actual Average Record
Temperature  
Mean Temperature 62 °F 60 °F  
Max Temperature 72 °F 73 °F 89 °F (1950)
Min Temperature 52 °F 46 °F 32 °F (1974)
Degree Days  
Heating Degree Days 3 6  
Month to date heating degree days 148 209  
Since 1 July heating degree days 5555 6121  
Cooling Degree Days 0 1  
Month to date cooling degree days 37 14  
Year to date cooling degree days 44 15  
Growing Degree Days 12 (Base 50)    
Moisture  
Dew Point 42 °F    
Average Humidity 53    
Maximum Humidity 83    
Minimum Humidity 23    
Precipitation  
Precipitation 0.16 in 0.10 in 1.82 in (1976)
Month to date precipitation 0.44 2.22  
Year to date precipitation 2.57 5.89  
Sea Level Pressure  
Sea Level Pressure 29.52 in    
Wind  
Wind Speed 15 mph (NW)    
Max Wind Speed 29 mph    
Max Gust Speed 38 mph    
Visibility 10 miles    
Events Rain    
T = Trace of Precipitation, MM = Missing Value Source: NWS Daily Summary

Daily Weather History Graph

Daily Weather History Graph

Search for Another Location

Airport or City:

Trip Planner

Search our weather history database for the weather conditions in past years. The results will help you decide how hot, cold, wet, or windy it might be!

Date:

Astronomy

May. 23, 2012 Rise Set
Actual Time 5:26 AM MDT 8:11 PM MDT
Civil Twilight 4:54 AM MDT 8:43 PM MDT
Nautical Twilight 4:14 AM MDT 9:24 PM MDT
Astronomical Twilight 3:28 AM MDT 10:10 PM MDT
Moon 7:31 AM MDT (5/23) 10:34 PM MDT (5/23)
Length of Visible Light 15h 49m
Length of Day
14h 44m
Waxing Crescent, 7% of the Moon is Illuminated
May 23
Waxing Crescent
May 28
First Quarter
Jun 4
Full
Jun 11
Last Quarter
Jun 19
New

Hourly Weather History & Observations

Time (MDT) Temp. Dew Point Humidity Pressure Visibility Wind Dir Wind Speed Gust Speed Precip Events Conditions
12:53 AM 70.0 °F 30.0 °F 23% 29.39 in 10.0 mi NW 13.8 mph - N/A   Clear
2:53 AM 68.0 °F 43.0 °F 40% 29.41 in 10.0 mi North 17.3 mph 24.2 mph N/A   Clear
3:53 AM 64.9 °F 44.1 °F 47% 29.42 in 10.0 mi NNE 12.7 mph - N/A   Clear
4:53 AM 62.1 °F 45.0 °F 53% 29.45 in 10.0 mi North 18.4 mph - N/A   Clear
5:53 AM 57.9 °F 45.0 °F 62% 29.49 in 10.0 mi North 16.1 mph 24.2 mph N/A   Clear
6:53 AM 57.0 °F 46.0 °F 67% 29.55 in 10.0 mi North 12.7 mph - N/A   Clear
7:53 AM 62.1 °F 45.0 °F 53% 29.56 in 10.0 mi North 21.9 mph 26.5 mph N/A   Clear
8:53 AM 66.9 °F 39.0 °F 36% 29.55 in 10.0 mi North 24.2 mph 29.9 mph N/A   Clear
9:53 AM 70.0 °F 37.9 °F 31% 29.55 in 10.0 mi NNW 23.0 mph 35.7 mph N/A   Clear
10:53 AM 72.0 °F 37.9 °F 29% 29.52 in 10.0 mi NNW 19.6 mph 27.6 mph N/A   Clear
11:53 AM 71.1 °F 37.9 °F 30% 29.54 in 10.0 mi NNW 21.9 mph 36.8 mph N/A   Unknown
12:53 PM 68.0 °F 37.9 °F 33% 29.56 in 10.0 mi NNW 23.0 mph 33.4 mph N/A   Clear
1:53 PM 70.0 °F 37.0 °F 30% 29.53 in 10.0 mi North 15.0 mph 24.2 mph N/A   Clear
2:53 PM 68.0 °F 36.0 °F 31% 29.52 in 10.0 mi NNW 10.4 mph - N/A   Partly Cloudy
3:53 PM 66.9 °F 35.1 °F 31% 29.52 in 10.0 mi NW 13.8 mph - N/A   Mostly Cloudy
4:53 PM 63.0 °F 39.9 °F 43% 29.55 in 10.0 mi WNW 16.1 mph 24.2 mph 0.00 in Rain Light Rain
5:53 PM 57.0 °F 46.9 °F 69% 29.58 in 10.0 mi Variable 3.5 mph - 0.01 in Rain Light Rain
6:53 PM 55.9 °F 46.0 °F 69% 29.56 in 10.0 mi SW 18.4 mph 26.5 mph 0.02 in Rain Light Rain
7:53 PM 54.0 °F 46.9 °F 77% 29.56 in 10.0 mi SSW 9.2 mph - 0.00 in   Overcast
8:53 PM 54.0 °F 46.0 °F 75% 29.54 in 10.0 mi SW 8.1 mph - 0.01 in Rain Light Rain
9:53 PM 53.1 °F 48.9 °F 86% 29.55 in 8.0 mi SSW 5.8 mph - 0.04 in Rain Light Rain
10:53 PM 53.1 °F 48.9 °F 86% 29.55 in 9.0 mi SSW 15.0 mph - 0.06 in Rain Light Rain
11:53 PM 52.0 °F 48.0 °F 86% 29.50 in 10.0 mi South 12.7 mph - 0.02 in   Overcast